TimeAST,TemperatureF,Dew PointF,Humidity,Sea Level PressureIn,VisibilityMPH,Wind Direction,Wind SpeedMPH,Gust SpeedMPH,PrecipitationIn,Events,Conditions,WindDirDegrees,DateUTC
12:00 AM,84.2,77.0,79,29.83,6.2,East,17.3,-,N/A,,Partly Cloudy,100,2013-09-15 04:00:00
1:00 AM,84.2,77.0,79,29.83,6.2,East,18.4,-,N/A,,Scattered Clouds,100,2013-09-15 05:00:00
2:00 AM,84,78,78,29.85,37,ESE,12.7,,,,Partly Cloudy,110,2013-09-15 06:00:00
2:00 AM,84.2,78.8,84,29.83,6.2,East,15.0,-,N/A,,Scattered Clouds,100,2013-09-15 06:00:00
3:00 AM,84.2,77.0,79,29.83,6.2,ESE,12.7,-,N/A,,Scattered Clouds,110,2013-09-15 07:00:00
4:00 AM,84.2,77.0,79,29.83,6.2,East,12.7,-,N/A,,Scattered Clouds,100,2013-09-15 08:00:00
5:00 AM,84,77,75,29.85,19,ESE,6.9,,,,Partly Cloudy,120,2013-09-15 09:00:00
5:00 AM,84.2,77.0,79,29.86,6.2,ESE,13.8,-,N/A,,Scattered Clouds,110,2013-09-15 09:00:00
6:00 AM,80.6,77.0,89,-9999,6.2,ESE,10.4,-,N/A,Rain-Thunderstorm,Thunderstorms and Rain,110,2013-09-15 10:00:00
7:00 AM,78.8,75.2,89,29.89,1.9,SE,12.7,-,N/A,Rain-Thunderstorm,Thunderstorms and Rain,140,2013-09-15 11:00:00
8:00 AM,83,79,84,29.88,12,ESE,8.1,,,Thunderstorm,Light Thunderstorm,120,2013-09-15 12:00:00
8:00 AM,82.4,78.8,89,29.86,6.2,ESE,10.4,-,N/A,,Partly Cloudy,110,2013-09-15 12:00:00
9:00 AM,86.0,78.8,79,29.89,6.2,ESE,11.5,-,N/A,,Scattered Clouds,110,2013-09-15 13:00:00
10:00 AM,87.8,77.0,70,29.89,6.2,ESE,16.1,-,N/A,,Scattered Clouds,110,2013-09-15 14:00:00
11:00 AM,89,77,60,29.91,19,East,16.1,,,,Scattered Clouds,100,2013-09-15 15:00:00
11:00 AM,87.8,77.0,70,29.89,6.2,East,13.8,-,N/A,,Scattered Clouds,100,2013-09-15 15:00:00
12:00 PM,89.6,77.0,66,29.89,6.2,East,16.1,-,N/A,,Partly Cloudy,100,2013-09-15 16:00:00
1:00 PM,89.6,77.0,66,29.86,6.2,East,17.3,-,N/A,,Partly Cloudy,100,2013-09-15 17:00:00
2:00 PM,89.6,77.0,66,29.83,6.2,East,15.0,-,N/A,,Partly Cloudy,100,2013-09-15 18:00:00
3:00 PM,89.6,77.0,66,29.80,6.2,East,15.0,-,N/A,,Partly Cloudy,100,2013-09-15 19:00:00
4:00 PM,87.8,77.0,70,29.80,6.2,ESE,17.3,-,N/A,,Partly Cloudy,110,2013-09-15 20:00:00
5:00 PM,86.0,77.0,74,29.80,6.2,ESE,16.1,-,N/A,,Scattered Clouds,110,2013-09-15 21:00:00
6:00 PM,86.0,77.0,74,29.80,6.2,East,16.1,-,N/A,,Partly Cloudy,100,2013-09-15 22:00:00
7:00 PM,84.2,77.0,79,29.83,6.2,East,16.1,-,N/A,,Partly Cloudy,100,2013-09-15 23:00:00
8:00 PM,84.2,77.0,79,29.86,6.2,East,16.1,-,N/A,,Partly Cloudy,100,2013-09-16 00:00:00
9:00 PM,84.2,77.0,79,29.89,6.2,ESE,16.1,-,N/A,,Partly Cloudy,110,2013-09-16 01:00:00
10:00 PM,84.2,77.0,79,29.92,6.2,ESE,15.0,-,N/A,,Partly Cloudy,110,2013-09-16 02:00:00
11:00 PM,83,77,77,29.92,25,ESE,11.5,,,,Scattered Clouds,110,2013-09-16 03:00:00
11:00 PM,84.2,77.0,79,29.92,6.2,ESE,10.4,-,N/A,,Partly Cloudy,110,2013-09-16 03:00:00